Regional Weather Roundup
Issued by NWS

Home | Current Version | Previous Version | Graphics & Text | Print | Product List | Glossary On
Versions: 1 2 3 4 5 6 7 8 9 10 11 12 13 14 15 16 17 18 19 20 21 22 23 24 25 26 27 28 29 30 31 32 33 34 35 36 37 38 39 40 41 42 43 44 45 46 47 48 49 50
000
ASUS43 KDMX 010507
RWRIA

WEATHER ROUNDUP FOR IOWA
NATIONAL WEATHER SERVICE DES MOINES IA
1200 AM CDT MON SEP 01 2014

NOTE: "FAIR" INDICATES FEW OR NO CLOUDS BELOW 12,000 FEET WITH NO
SIGNIFICANT WEATHER AND/OR OBSTRUCTIONS TO VISIBILITY.

* - THESE STATIONS ARE NOT NWS STATIONS...THUS NOT UNDER NWS
QUALITY CONTROL.  THEY ALSO DO NOT REPORT WEATHER SUCH
AS PRECIPITATION OR FOG.

IAZ001>003-012>014-020>022-031>034-043>046-010600-
   NORTHWEST IOWA

CITY           SKY/WX    TMP DP  RH WIND       PRES   REMARKS
CARROLL *      CLOUDY    64  64 100 SE7       29.67F
CHEROKEE *     CLOUDY    63  63 100 CALM      29.69R
DENISON *      CLEAR     66  66 100 SE5       29.66R
LE MARS *      CLEAR     64  63  94 CALM      29.67R
ORANGE CITY *  CLEAR     64  63  94 CALM      29.69R
SHELDON *      PTCLDY    63  63 100 VRB5      29.67R
SIOUX CITY     CLOUDY    65  63  93 NW5       29.66R
SPENCER        CLOUDY    64  62  93 E5        29.67S
STORM LAKE *   CLEAR     63  63 100 CALM      29.69R
$$

IAZ055>058-069>071-079>083-090>094-010600-
   SOUTHWEST IOWA

CITY           SKY/WX    TMP DP  RH WIND       PRES   REMARKS
ATLANTIC *     CLEAR     70  68  94 VRB5      29.67S
AUDUBON *      PTCLDY    70  66  88 E3        29.69S
CLARINDA *     PTCLDY    70  66  88 SW14G29   29.73R
COUNCIL BLFS * CLEAR     68  68 100 S6        29.69R
CRESTON *      CLOUDY    68  63  83 S17G28    29.68F
HARLAN  *      CLEAR     66  66 100 CALM      29.72R
LAMONI         RAIN      67  64  90 S7        29.80F
RED OAK *      CLOUDY    70  66  88 S10G16    29.71R
SHENANDOAH *   CLEAR     68  66  94 S15G21    29.73R
$$

IAZ047>049-059>061-072>074-084-010600-
   CENTRAL IOWA

CITY           SKY/WX    TMP DP  RH WIND       PRES   REMARKS
AMES           CLOUDY    66  66 100 SE9       29.76R
ANKENY *       LGT RAIN  66  64  94 S20G29    29.75R
CHARITON *     RAIN      66  64  94 S5        29.81F
DES MOINES     TSTM      68  64  87 SE21G31   29.72F
GRINNELL*      HVY RAIN  64  64 100 E8        29.84S
KNOXVILLE *    LGT RAIN  64  63  94 S8        29.81F
MARSHALLTOWN   LGT RAIN  65  64  97 E5        29.81R
PELLA *        RAIN      65  65  97 SW5       29.84F
PERRY *          N/A     66  66 100 SE6       29.73R
$$

IAZ004>006-015-016-023>025-035-036-010600-
   NORTH CENTRAL IOWA

CITY           SKY/WX    TMP DP  RH WIND       PRES   REMARKS
ALGONA *       MOCLDY    64  63  94 S5        29.70R
CLARION *      CLEAR     64  64 100 SE16      29.70R
ESTHERVILLE    CLOUDY    62  62 100 S5        29.68S
FORT DODGE *   CLOUDY    64  63  94 SE6       29.71R
MASON CITY     CLOUDY    63  62  97 SE14G21   29.72F
FOREST CITY *  CLEAR     63  63 100 SE12      29.70F
IOWA FALLS *   RAIN      63  63 100 SE5       29.75F
$$

IAZ007>011-017>019-026>030-037>042-050>054-066-010600-
   NORTHEAST IOWA

CITY           SKY/WX    TMP DP  RH WIND       PRES   REMARKS
CEDAR RAPIDS   TSTM      70  67  90 NW22G30   29.82R
CHARLES CITY * LGT RAIN  64  63  94 SE6G14    29.79F
CLINTON *      CLOUDY    73  70  88 S9        29.83F
DECORAH *      RAIN      64  63  94 VRB5      29.81F
DUBUQUE        CLOUDY    74  68  81 SW13      29.83R
MONTICELLO *   DRIZZLE   73  70  88 W18G24    29.85R
OELWEIN *      LGT RAIN  64  63  94 S5        29.87S
WATERLOO       LGT RAIN  64  63  96 E9        29.81F
$$

IAZ064-065-067-068-078-010600-
   EAST CENTRAL IOWA

CITY           SKY/WX    TMP DP  RH WIND       PRES   REMARKS
DAVENPORT      CLOUDY    77  68  73 S17G23    29.81F
IOWA CITY      CLOUDY    77  70  79 S6        29.80R
MT. PLEASANT * CLOUDY    77  66  69 S9        29.80R
MUSCATINE *    CLEAR     77  68  73 S10       29.79F
QUAD CITIES    CLOUDY    76  69  79 S13G20    29.81S
$$

IAZ062-063-075>077-085>089-095>099-010600-
   SOUTHEAST IOWA

CITY           SKY/WX    TMP DP  RH WIND       PRES   REMARKS
BURLINGTON     LGT RAIN  77  71  82 S10       29.81S
FAIRFIELD *    CLOUDY    77  66  69 S13       29.79R
FORT MADISON * CLEAR     77  72  83 S7        29.82R
KEOKUK *       CLEAR     77  70  78 S8G15     29.80R
OSKALOOSA *    HVY RAIN  68  64  88 NW23G36   29.88R
CENTERVILLE *  LGT RAIN  73  70  88 W15G21    29.85R
OTTUMWA        TSTM      75  67  76 S8        29.79R
WASHINGTON *   CLEAR     75  70  83 S8        29.79R
$$

ABBREVIATIONS USED IN REMARKS
   TC - TEMPERATURES IN CELSIUS
  WCI - WIND CHILL INDEX
   HX - HEAT INDEX
  VSB - VISIBILITY
$$



USA.gov is the U.S. government's official web portal to all federal, state and local government web resources and services.